Regional Weather Roundup
Issued by NWS

Home | Current Version | Previous Version | Graphics & Text | Print | Product List | Glossary On
Versions: 1 2 3 4 5 6 7 8 9 10 11 12 13 14 15 16 17 18 19 20 21 22 23 24 25 26 27 28 29 30 31 32 33 34 35 36 37 38 39 40 41 42 43 44 45 46 47 48 49 50
000
ASUS43 KIND 250659
RWRIN

WEATHER ROUNDUP FOR INDIANA
NATIONAL WEATHER SERVICE INDIANAPOLIS IN
300 AM EDT WED APR 25 2018

NOTE: "FAIR" INDICATES FEW OR NO CLOUDS BELOW 12,000 FEET WITH NO
SIGNIFICANT WEATHER AND/OR OBSTRUCTIONS TO VISIBILITY.

* - STATION DOES NOT REPORT WEATHER SUCH AS PRECIPITATION OR FOG.

+ - STATION NOT QUALITY CONTROLLED BY THE NATIONAL WEATHER SERVICE.
    USE DATA WITH CAUTION...ESPECIALLY DEWPOINT AND RELATIVE
    HUMIDITY OBSERVATIONS.

INZ001>003-010>013-019-020-250800-
NORTHWEST INDIANA

CITY           SKY/WX    TMP DP  RH WIND       PRES   REMARKS
KNOX *+        MOCLDY    43  43 100 NW7       29.97S
MONTICELLO +   FAIR      44  43  95 NW7       29.95F

$$

LMZ046-743>745-250800-
SOUTHERN LAKE MICHIGAN

STATION/POSITION TIME  TEMP    WIND        PRES    WAVE
                       AIR SEA DIR/SP/G            HT
                 (UTC) (F)     (DEG/KT/KT) (MB)    (FT)
BURNS HARBOR     0640   40     330/  7/  8 1016.9S
MICHIGAN CITY    0630   41     330/ 12/ 12   N/A

$$

INZ004-005-014>016-021>024-250800-
NORTH CENTRAL INDIANA

CITY           SKY/WX    TMP DP  RH WIND       PRES   REMARKS
GOSHEN         CLOUDY    53  51  93 N5        29.95F FOG
ROCHESTER +    CLOUDY    54  52  94 N5        29.95F FOG
SOUTH BEND     CLOUDY    51  48  89 NW8       29.98F
WARSAW +       CLOUDY    52  52 100 N3        29.94F FOG

$$

INZ006>009-017-018-025>027-250800-
NORTHEAST INDIANA

CITY           SKY/WX    TMP DP  RH WIND       PRES   REMARKS
ANGOLA *+      CLOUDY    50  50 100 N6        29.93F FOG
FORT WAYNE     CLOUDY    52  50  93 N8        29.94F

$$

INZ028-029-035-036-043>045-051>053-250800-
WEST CENTRAL INDIANA

CITY           SKY/WX    TMP DP  RH WIND       PRES   REMARKS
GREENCASTLE +  FAIR      50  48  93 CALM      29.95F FOG
LAFAYETTE      FAIR      48  47  96 NW7       29.95F
TERRE HAUTE    FAIR      51  50  96 NW3       29.95F

$$

INZ030>032-037>040-046>048-054>057-064-065-250800-
CENTRAL INDIANA

CITY           SKY/WX    TMP DP  RH WIND       PRES   REMARKS
GREENWOOD *+   CLOUDY    52  50  94 CALM      29.93F
INDIANAPOLIS   MOCLDY    52  50  93 N6        29.93F
-EAGLE CREEK   CLOUDY    53  49  86 N5        29.92F
KOKOMO +       CLOUDY    52  50  93 N6        29.94F
MT COMFORT *+  CLOUDY    52  52 100 N8        29.93F
SHELBYVILLE    CLOUDY    53  50  89 N9        29.92F
ZIONSVILLE +   MOCLDY    49  49  98 N6        29.94F

$$

INZ033-034-041-042-049-050-058-059-250800-
EAST CENTRAL INDIANA

CITY           SKY/WX    TMP DP  RH WIND       PRES   REMARKS
MUNCIE         CLOUDY    53  51  93 N9        29.92F FOG
RICHMOND +     CLOUDY    50  50 100 N6        29.91F FOG

$$

INZ060-061-067>069-081>083-085>088-250800-
SOUTHWEST INDIANA

CITY           SKY/WX    TMP DP  RH WIND       PRES   REMARKS
EVANSVILLE     FAIR      53  53 100 W6        29.96F FOG
HUNTINGBURG +  FAIR      53  51  93 NW5       29.94F

$$

INZ062-063-066-070>080-084-089>092-250800-
SOUTH CENTRAL AND SOUTHEAST INDIANA

CITY           SKY/WX    TMP DP  RH WIND       PRES   REMARKS
BLOOMINGTON    FAIR      51  49  92 NW3       29.93F FOG
MADISON *+     CLOUDY    54  52  94 CALM      29.93F
SEYMOUR +      CLOUDY    54  54 100 NW5       29.93F FOG

$$





USA.gov is the U.S. government's official web portal to all federal, state and local government web resources and services.